Probability
0 0 0 0 0 0 0 0 0 0 0 0 0 0 0 0 0 0 0 0 0 0 0 0 0 0 0 0 0 0 0 0 0 0 0 0 0 0 0 0 0 0 0
1 0 0 0 0 0 0 0 0 0 0 0 0 0 0 0 0 0 0 0 0 0 0 0 0 0 0 0 0 0 0 0 0 0 0 0 0 0 0 0 0 0 0
2 2 1 1 1 1 0 0 0 0 0 0 0 0 0 0 0 0 0 0 0 0 0 0 0 0 0 0 0 0 0 0 0 0 0 0 0 0 0 0 0 0 0
5 5 5 4 3 3 2 0 0 0 0 0 0 0 0 0 0 0 0 0 0 0 0 0 0 0 0 0 0 0 0 0 0 0 0 0 0 0 0 0 0 0 0
11 11 10 8 6 6 4 1 0 0 0 0 0 0 0 0 0 0 0 0 0 0 0 0 0 0 0 0 0 0 0 0 0 0 0 0 0 0 0 0 0 0 0
20 19 17 13 11 10 7 3 1 0 0 0 0 0 0 0 0 0 0 0 0 0 0 0 0 0 0 0 0 0 0 0 0 0 0 0 0 0 0 0 0 0 0
27 28 25 22 21 18 12 6 3 1 0 0 0 0 0 0 0 0 0 0 0 0 0 0 0 0 0 0 0 0 0 0 0 0 0 0 0 0 0 0 0 0 0
33 35 34 31 29 27 20 12 6 4 2 1 1 1 0 0 0 0 0 0 0 0 0 0 0 0 0 0 0 0 0 0 0 0 0 0 0 0 0 0 0 0 0
38 39 39 37 35 32 25 16 10 8 7 5 3 2 1 1 0 0 0 0 0 0 0 0 0 0 0 0 0 0 0 0 0 0 0 0 0 0 0 0 0 0 0
36 39 41 40 38 34 26 17 12 11 9 8 6 4 3 2 1 0 0 0 0 0 0 0 0 0 0 0 0 0 0 0 0 0 0 0 0 0 0 0 0 0 0
32 35 40 41 39 34 26 18 15 12 9 7 6 5 4 4 2 1 0 0 0 0 0 0 1 1 1 1 1 0 0 0 0 0 0 0 0 0 0 0 0 0 0
28 29 34 38 37 33 26 21 16 11 8 6 5 6 6 6 6 4 1 1 0 0 0 1 2 2 1 1 1 0 0 0 0 0 0 0 0 0 0 0 0 0 0
21 22 25 30 32 30 25 20 16 12 9 6 5 7 7 7 7 6 4 2 1 1 1 1 2 1 1 1 0 0 0 0 0 0 0 0 0 0 0 0 0 0 0
13 15 20 23 26 26 22 18 17 15 12 7 6 8 9 8 7 6 5 3 2 1 0 1 1 0 0 0 0 0 0 0 0 0 0 0 0 0 0 0 0 0 0
7 11 16 20 22 23 20 17 16 16 13 8 7 9 10 9 9 7 5 3 3 1 1 1 0 0 0 0 0 0 0 0 0 0 0 0 0 0 0 0 0 0 0
3 7 11 14 16 17 15 13 14 14 13 9 6 7 8 10 10 9 6 4 3 2 2 1 0 0 0 0 0 0 0 0 0 0 0 0 0 0 0 0 0 0 0
3 4 6 8 9 8 8 9 10 11 10 7 4 3 5 6 8 8 7 5 4 3 2 1 1 0 0 0 0 0 0 0 0 0 0 0 0 0 0 0 0 0 0
3 3 4 4 4 4 5 6 7 7 6 4 2 1 1 2 3 5 5 5 5 3 1 1 1 0 0 0 0 0 0 0 0 0 0 0 0 0 0 0 0 0 0
2 2 2 3 3 3 3 4 4 3 2 1 0 0 0 0 1 2 2 3 3 2 0 1 1 0 0 0 0 0 0 0 0 0 0 0 0 0 0 0 0 0 0
1 1 1 1 2 1 1 1 1 1 0 0 0 0 0 0 0 1 1 1 1 0 0 0 0 0 0 0 0 0 0 0 0 0 0 0 0 0 0 0 0 0 0
0 0 0 0 0 0 0 0 0 0 0 0 0 0 0 0 0 0 0 0 0 0 0 0 0 0 0 0 0 0 0 0 0 0 0 0 0 0 0 0 0 0 0
0 0 0 0 0 0 0 0 0 0 0 0 0 0 0 0 0 0 0 0 0 0 0 0 0 0 0 0 0 0 0 0 0 0 0 0 0 0 0 0 0 0 0
0 0 0 0 0 0 0 0 0 0 0 0 0 0 0 0 0 0 0 0 0 0 0 0 0 0 0 0 0 0 0 0 0 0 0 0 0 0 0 0 0 0 0
0 0 0 0 0 0 0 0 0 0 0 0 0 0 0 0 0 0 0 0 0 0 0 0 0 0 0 0 0 0 0 0 0 0 0 0 0 0 0 0 0 0 0
0 0 0 0 0 0 0 0 0 0 0 0 0 0 0 0 0 0 0 0 0 0 0 0 0 0 0 0 0 0 0 0 0 0 0 0 0 0 0 0 0 0 0
0 0 0 0 0 0 0 0 0 0 0 0 0 0 0 0 0 0 0 0 0 0 0 0 0 0 0 0 0 0 0 0 0 0 0 0 0 0 0 0 0 0 0
Wind_Speed
7 7 6 5 6 5 6 6 6 7 7 7 6 5 5 5 3 2 4 6 2 1 2 4 4 4 5 5 5 6 6 5 6 6 6 6 5 5 4 4 3 3 2
7 7 7 6 6 6 6 6 8 6 6 6 5 5 5 5 3 3 2 6 5 2 1 3 4 4 5 5 5 5 6 5 5 5 5 5 4 4 3 3 2 2 1
9 8 7 7 7 7 8 7 8 6 6 6 7 7 6 5 4 5 4 2 5 6 3 2 3 4 5 5 5 5 5 5 5 5 5 4 3 3 3 2 2 2 2
11 8 7 7 7 6 6 6 6 7 7 7 6 6 5 5 6 4 4 5 3 4 7 5 3 3 3 4 5 5 5 5 5 4 4 4 3 2 2 2 2 2 3
10 8 7 7 8 6 7 7 7 7 7 6 6 5 5 5 5 6 6 6 5 4 4 8 6 4 3 3 4 5 5 5 5 4 4 3 3 3 2 2 2 2 3
9 8 7 9 8 6 7 7 8 7 6 6 7 6 6 5 6 6 6 5 5 6 5 5 6 7 6 5 4 4 5 5 5 5 4 4 3 3 3 2 2 3 3
9 9 7 8 7 7 8 9 7 8 7 6 6 5 6 8 7 6 6 6 6 6 6 6 5 4 6 8 6 5 5 5 5 5 4 4 3 3 3 2 2 3 4
8 8 9 8 8 7 9 9 8 6 6 6 6 4 5 6 6 7 7 6 7 6 7 7 7 6 5 5 8 7 5 5 5 5 4 3 3 3 2 2 2 2 3
7 8 9 8 8 8 7 8 9 9 6 6 6 5 4 5 3 5 8 7 7 5 6 7 8 8 7 5 6 9 7 5 6 6 5 4 4 3 3 3 2 3 3
6 6 8 8 8 6 7 8 9 7 7 6 5 6 6 3 3 3 5 6 7 7 7 6 7 7 7 6 4 5 9 7 7 7 6 5 5 4 4 3 3 3 3
4 4 5 6 6 6 6 7 8 9 7 7 6 5 6 4 6 4 4 4 5 6 6 6 5 5 6 6 6 7 10 9 8 8 8 7 6 5 5 4 4 4 4
2 3 4 4 5 5 7 7 7 8 7 8 7 6 5 5 5 5 5 4 4 4 4 4 4 4 4 5 7 6 9 9 9 9 9 8 7 6 5 5 5 4 4
1 2 3 4 4 5 6 6 7 7 8 9 8 6 5 5 3 3 4 4 4 3 3 4 3 3 4 4 4 6 8 9 10 10 9 9 8 7 6 5 5 5 5
2 2 2 2 3 4 5 5 5 6 7 8 8 7 5 5 5 4 4 3 4 3 4 4 2 2 2 3 1 5 7 10 9 10 10 9 8 8 7 6 6 5 5
3 2 0 1 2 3 4 4 4 5 5 6 6 7 5 5 5 5 4 4 4 4 4 3 2 2 2 1 1 5 6 7 8 8 9 9 8 8 7 7 6 5 4
4 3 1 1 1 1 2 3 3 3 5 5 4 6 5 4 4 4 4 4 4 4 3 2 2 2 2 2 2 4 2 6 6 6 7 7 7 7 7 7 6 6 5
6 4 4 2 2 2 1 2 2 3 3 3 4 4 4 4 4 3 4 4 4 3 3 2 2 2 3 2 3 2 3 4 5 5 4 4 5 6 6 6 6 5 6
7 7 5 5 4 3 2 1 1 2 2 3 3 3 3 3 3 3 3 4 3 4 3 3 2 2 2 2 2 2 2 2 2 6 4 3 3 3 4 4 3 4 5
8 7 7 7 6 5 4 3 2 2 1 1 2 3 3 3 2 2 4 3 3 3 2 2 2 2 2 2 2 2 3 2 2 5 5 4 3 2 2 2 1 2 3
9 8 8 7 7 6 6 4 3 2 2 2 3 3 3 3 2 2 2 3 3 3 3 3 3 3 2 2 2 2 3 3 2 3 3 3 5 4 3 2 1 1 1
9 8 8 8 8 6 7 6 3 3 3 4 3 3 4 4 4 2 1 2 3 3 3 3 3 3 3 2 2 2 3 3 4 2 2 3 3 2 3 3 4 4 3
9 9 9 9 9 7 9 9 5 4 4 4 4 4 4 4 5 5 5 4 2 2 3 3 3 3 4 3 2 2 3 3 3 2 2 3 3 4 5 5 8 8 7
10 10 10 9 9 10 10 9 8 4 5 5 5 4 4 4 3 5 7 7 6 6 3 2 4 4 4 3 3 3 2 3 3 2 1 3 4 5 5 7 10 10 10
8 8 9 9 9 11 12 10 6 5 6 6 6 5 5 4 4 3 5 6 7 7 5 4 5 5 3 2 2 3 4 5 5 2 0 2 3 4 5 6 10 12 11
8 8 8 9 9 11 13 11 7 5 6 7 7 7 6 6 6 2 5 8 8 8 9 11 11 9 9 7 3 2 3 3 3 3 1 2 3 3 4 5 7 11 12
7 7 8 9 10 10 13 13 9 5 6 6 6 7 9 7 5 4 4 6 7 7 7 8 8 7 7 7 3 2 1 1 3 3 2 1 3 3 3 4 4 4 6
Wind_Direction
233 227 223 213 223 219 207 216 223 210 217 219 218 219 201 194 195 196 123 124 130 173 175 173 169 165 163 160 156 152 151 152 150 144 141 140 135 133 131 125 125 121 114
236 234 233 221 222 221 220 218 217 211 218 218 221 227 234 210 200 201 160 146 151 153 175 180 173 172 170 165 162 162 160 158 157 152 148 147 145 141 145 146 146 152 180
238 235 237 228 220 216 216 219 214 219 219 215 217 223 221 223 213 203 184 181 162 160 164 184 179 174 173 169 167 166 163 163 159 159 159 158 157 163 172 180 191 207 229
238 237 235 234 227 218 218 211 220 217 216 221 219 214 216 205 230 225 198 187 186 167 161 160 173 174 179 178 176 170 165 163 164 166 167 170 173 182 198 219 231 238 248
240 232 231 231 226 215 217 214 213 219 221 222 228 222 229 213 219 220 219 207 185 190 174 147 168 175 180 185 184 179 178 177 178 178 179 184 192 202 211 227 242 252 259
239 234 230 230 227 216 217 218 215 218 228 223 233 226 225 224 224 226 233 222 215 197 198 178 184 173 177 185 190 191 189 187 186 189 193 197 196 204 219 232 247 265 275
238 230 231 231 224 219 219 219 216 216 221 223 229 230 229 230 230 213 227 229 218 210 212 204 208 189 171 179 191 196 196 194 192 193 195 199 199 210 228 238 254 271 281
241 233 228 227 223 221 220 220 219 219 217 215 220 220 231 224 224 227 220 229 234 209 220 215 204 201 203 183 154 180 194 203 203 198 198 195 191 200 219 236 255 272 287
239 231 226 225 223 217 216 215 215 215 213 215 223 212 219 226 208 215 220 223 232 230 225 227 221 208 201 199 169 178 186 198 208 207 204 200 198 205 217 231 253 278 288
241 232 229 225 224 217 214 214 214 212 211 212 219 228 237 242 216 213 210 218 221 229 233 226 230 228 212 199 183 162 179 197 209 214 210 206 206 211 220 231 247 266 280
244 226 226 220 216 212 215 218 216 212 212 215 211 212 224 231 240 237 224 211 214 221 229 234 230 231 221 212 199 188 182 199 208 214 214 212 212 212 217 228 239 253 267
252 222 219 213 210 209 213 216 218 215 216 222 220 214 210 211 217 221 231 225 225 220 219 226 236 230 227 225 215 169 186 202 209 213 215 216 217 219 225 231 238 245 251
288 251 227 213 203 204 209 209 212 214 215 220 221 220 219 220 210 211 227 234 232 218 214 218 217 224 226 227 213 179 202 208 212 213 212 212 212 216 224 231 238 242 245
326 308 238 211 201 199 204 204 209 214 213 217 219 218 217 221 214 209 217 220 229 225 220 209 169 197 220 234 210 207 213 201 210 213 213 211 208 210 216 227 236 244 253
357 354 324 201 193 193 198 198 206 207 209 212 216 216 215 214 214 219 220 218 219 223 220 198 176 159 192 214 178 227 230 178 197 208 210 210 209 211 213 222 227 228 241
12 13 42 65 123 161 179 182 191 197 201 203 206 211 208 209 209 209 213 218 221 227 227 185 172 157 176 195 197 243 226 152 187 199 205 209 211 212 214 220 219 220 228
19 25 35 51 71 86 126 163 181 183 197 195 195 200 202 197 191 194 200 206 211 212 217 189 163 172 185 183 172 203 195 188 161 167 185 199 208 208 211 215 219 225 234
29 32 37 48 56 59 63 91 125 161 176 177 180 187 190 180 182 186 193 198 196 201 203 189 157 160 160 149 157 159 162 151 140 130 148 167 185 193 200 208 215 228 236
31 36 39 39 41 44 45 52 73 94 105 143 158 159 160 155 166 179 193 190 185 185 186 169 142 127 134 137 150 137 132 125 124 135 146 152 145 144 158 177 207 241 251
33 33 36 37 36 38 39 38 51 72 87 97 108 124 134 135 140 154 170 169 162 158 156 154 146 143 132 130 159 147 139 122 111 112 104 107 122 125 114 101 72 5 307
31 35 38 40 38 35 31 22 38 69 82 84 90 98 90 85 70 81 111 142 157 157 153 147 142 141 135 142 134 139 127 125 97 79 99 99 110 98 102 98 72 49 37
32 35 38 39 37 35 29 28 21 66 75 76 72 77 96 105 104 102 86 75 58 122 137 142 140 134 123 117 115 132 142 157 120 76 90 81 73 68 55 50 49 52 46
32 33 35 35 39 37 33 40 37 61 69 70 69 71 73 79 91 108 118 127 95 65 43 101 116 107 112 121 139 133 120 96 85 82 100 90 78 76 69 59 55 54 50
33 35 34 33 39 38 35 35 29 73 75 72 69 68 73 77 65 82 115 107 94 79 64 78 87 81 79 95 112 115 116 114 110 92 76 107 96 87 84 72 61 58 53
33 36 39 37 39 39 32 27 20 76 78 74 68 61 61 74 55 25 114 112 105 93 72 69 69 77 67 49 31 137 150 153 132 110 51 100 117 110 92 86 81 73 64
35 39 43 41 40 38 32 26 14 69 80 79 74 69 58 61 57 2 115 113 111 110 115 114 107 113 101 87 32 63 77 126 132 119 91 132 153 154 123 85 71 74 78